OBJECT G, 57172

Orbit data source: Space-Track

You're viewing an Uncataloged Satellite

Recently launched and/or uncataloged satellites may have evolving metadata. Metadata may include but not limited to: Owner, Maufacturer, Bus, Motor, and Mission.

OBJECT G, 57172 is a satellite in SSO that was launched on Tue, 27 Jun 2023 UTC via a SOYUZ-2-1B launch vehicle from the Vostochny Cosmodrome (VOSTO). Unknown objects in Earth's orbit typically refer to objects detected orbiting the Earth but have not yet been identified or cataloged. These objects could be anything from previously untracked satellites, spent rocket stages, debris from satellite collisions, or even natural meteoroids temporarily captured by Earth's gravity.

Loading next visibility...
Identifier
57172, 2023-091G
Orbit
SSO
Country
Flag of TBDTBD
Related business
None
Manufacturer
Unknown
Mission
Operational Amateur Technology
Bus & Motor
Unknown
Mass
Unknown
Launch date (UTC)
2023-06-27 (2 years ago)
Launch vehicle
SOYUZ-2-1B
Launch site
Vostochny Cosmodrome (VOSTO)
Object type
Unknown
Shape & HBR
Box, 0.1 m
Radar Cross Section
0.035 m², Small (<0.1 m²)

Expand to show TLE details & history
Last TLE update: 12 hours ago

TLE from 12 hours ago
0 OBJECT G
1 57172U 23091G   25304.81143036  .00008980  00000-0  45242-3 0  9992
2 57172  97.5410 359.4688 0013552 188.3711 171.7299 15.17327374129332
Epoch: 2025-10-31T19:28Z
TLE epoch observation values (Epoch: 2025-10-31T19:28:27.583Z)
Latitude
0.00007°
Longitude
27.00336°
Altitude
526.25 km
Speed
7.595 km/s
True Right ascension
23h 57m 52s
True Declination
0° 00' 00"
Sunlit
Object was in full shadow at epoch
Visualization orbit readout
Latitude
Unknown
Longitude
Unknown
Altitude
Unknown
Speed
Unknown
Apparent Right ascension
Unknown
Apparent Declination
Unknown
Sunlit
N/A
Visualization observer readout
Local Sidereal Time
02:51:24
Azimuth
Unknown
Elevation
Unknown
Doppler factor
Unknown
Orbital elements
Apogee altitude
520.233 km
Perigee altitude
501.561 km
Semi-major axis
6,889.034 km
Eccentricity
0.00136
Inclination
97.541°
RAAN
359.4688°
Arg. of periapsis
188.3711°
True anomaly
171.7522°
Mean anomaly
171.7299°
Eccentric anomaly
171.74105°
Mean motion
3.79582 °/min
Orbital period
94.84 mins
BSTAR
0.00045242
Loading maneuver chart data...
Computing Atmospheric mass density...
Loading historical data...
Loading historical data...
Loading historical data...
Loading historical data...
Loading historical data...
Loading historical data...
Loading historical data...

Documentation

Showing up to 5 results
|